Content
SEND FEEDBACK

Daily
Averages
Monthly
Summary
United States of America

EL PASO, TEXAS


Home > North America > United States > Texas
Elevation: 3918 feet     Latitude: 31 48N     Longitude: 106 24W

WEATHER
 
SELECT A DAY
Number of Records: 171,958;   Date Range: 1/1/95 - 7/29/14
 
SHARE

PRINT THIS DATA

[ ← Previous Day ]
WEATHER ALMANAC - NOVEMBER 1, 2013
[ Next Day → ]
[ °C ]   °F
Weather ElementAverageHighLow
Temperature57.5 °F70 °F (2:51 pm)42.1 °F (6:51 am)
Dewpoint20.6 °F25 °F (10:51 am)12 °F (1:51 am)
Humidity24.9 %38 % (6:51 am)16 % (1:51 am)
Barometer30.02 in30.11 in (9:51 pm)29.90 in (2:51 am)
Wind Speed5.7 mph12.7 mph (3:51 pm)
Wind Gust19.6 mph (3:51 pm)
Weather ElementAverage
Visibility10 mi
Wind DirectionSSE (163.5 °)

Weather ElementTotal
Precipitation---
Heating Degree Days9 (Base 65)
Growing Degree Days6.1 (Base 50)
Averaged from 23 records on November 1, 2013
WEATHER CONDITIONS BREAKOUT
WIND DIRECTION BREAKOUT
WEATHER BY HOUR - NOVEMBER 1, 2013
[ °C ]   °F
Local TimeTemperatureDewpointHumidityBarometerVisibilityWind DirectionWind SpeedGust SpeedPrecipitationEventsConditions
1:51 AM59.0 °F12.0 °F16 %29.91 in10.0 miNorth (360°)9.2 mphClear
2:51 AM57.0 °F12.9 °F18 %29.90 in10.0 miWest (270°)8.1 mphClear
3:51 AM53.1 °F16.0 °F23 %29.90 in10.0 miWSW (240°)11.5 mphClear
4:51 AM48.0 °F17.1 °F29 %29.94 in10.0 miEast (80°)5.8 mphClear
5:51 AM44.1 °F17.1 °F34 %29.98 in10.0 miCalmClear
6:51 AM42.1 °F18.0 °F38 %30.02 in10.0 miCalmClear
7:51 AM43.0 °F18.0 °F37 %30.05 in10.0 miCalmClear
8:51 AM51.1 °F19.9 °F29 %30.07 in10.0 miCalmClear
9:51 AM55.0 °F21.9 °F28 %30.08 in10.0 miNNW (340°)3.5 mphClear
10:51 AM59.0 °F25.0 °F27 %30.07 in10.0 miNorth (350°)9.2 mphClear
11:51 AM62.1 °F25.0 °F24 %30.07 in10.0 miVariable5.8 mphClear
12:51 PM64.9 °F25.0 °F22 %30.04 in10.0 miCalmClear
1:51 PM69.1 °F24.1 °F18 %29.99 in10.0 miVariable3.5 mphClear
2:51 PM70.0 °F21.0 °F16 %29.97 in10.0 miNW (320°)10.4 mphClear
3:51 PM70.0 °F23.0 °F17 %29.97 in10.0 miWNW (300°)12.7 mph19.6 mphClear
4:51 PM69.1 °F21.9 °F17 %29.99 in10.0 miNW (310°)8.1 mph16.1 mphClear
5:51 PM68.0 °F21.9 °F17 %30.01 in10.0 miNW (320°)9.2 mphClear
6:51 PM64.0 °F21.9 °F20 %30.04 in10.0 miNorth (360°)3.5 mphClear
7:51 PM60.1 °F25.0 °F26 %30.08 in10.0 miNorth (360°)4.6 mphClear
8:51 PM57.0 °F23.0 °F27 %30.09 in10.0 miNNE (20°)3.5 mphClear
9:51 PM50.0 °F23.0 °F35 %30.11 in10.0 miEast (80°)8.1 mphClear
10:51 PM54.0 °F21.0 °F28 %30.10 in10.0 miNE (40°)6.9 mphClear
11:51 PM53.1 °F19.9 °F27 %30.11 in10.0 miNorth (10°)6.9 mphClear
Hourly data recorded from KELP, located miles away from El Paso, Texas







STORIES FROM OUR PARTNERS